Regional Weather Roundup
Issued by NWS Albany, NY

Current Version | Previous Version | Graphics & Text | Print | Product List | Glossary Off
Versions: 1 2 3 4 5 6 7 8 9 10 11 12 13 14 15 16 17 18 19 20 21 22 23 24 25 26 27 28 29 30 31 32 33 34 35 36 37 38 39 40 41 42 43 44 45 46 47 48 49 50

000
ASUS41 KALY 282210
RWRALY

NEW YORK STATE HOURLY WEATHER ROUNDUP
NATIONAL WEATHER SERVICE ALBANY NY
500 PM EST WED JAN 28 2015

NOTE: "FAIR" INDICATES FEW OR NO CLOUDS BELOW 12,000 FEET WITH NO
SIGNIFICANT WEATHER AND/OR NO OBSTRUCTIONS TO VISIBILITY.

NYZ032-033-038>043-046>054-057>066-NYZ062>081-282300-
EAST


CITY           SKY/WX    TMP DP  RH WIND       PRES   REMARKS
ALBANY         CLEAR     21  -1  38 N8        30.18R WCI  11
GLENS FALLS    CLEAR     18   1  47 E3        30.20R
POUGHKEEPSIE   CLEAR     27   5  39 NW7       30.14R WCI  19
NEWBURGH       CLEAR     28   9  43 N9        30.13R WCI  20
MONTGOMERY     CLEAR     26   5  40 N5        30.12R WCI  20
WHITE PLAINS   CLEAR     28   6  39 NW18      30.10R WCI  15
ISLIP          CLEAR     27  11  51 N13G26    30.09R WCI  16
NEW YORK CITY  CLEAR     32  11  41 N9        30.13R WCI  24
CENTRAL PARK   CLEAR     33   6  32 VRB6      30.14R WCI  28
$$

NYZ005>009-017-018-044>046-055-056-282300-
CENTRAL


CITY           SKY/WX    TMP DP  RH WIND       PRES   REMARKS
FULTON         CLEAR     22   7  52 NW6       30.29R WCI  14
SYRACUSE       CLEAR     20   5  52 NW7       30.28R WCI  11
ROME           CLEAR     19   0  43 W10       30.27R WCI   7
ELMIRA         CLEAR     25   8  48 N9        30.24R WCI  15
BINGHAMTON     CLEAR     19   2  47 NW13      30.15R WCI   6
MONTICELLO     CLEAR     23   0  36 NW10G20   30.11R WCI  12
$$

NYZ026>034-041>043-282300-
NORTH


CITY           SKY/WX    TMP DP  RH WIND       PRES   REMARKS
WATERTOWN      CLEAR     17  -1  45 S3        30.30R
FORT DRUM      NOT AVBL
MASSENA        CLEAR     17  -8  32 W6        30.28R WCI   9
SARANAC LAKE   CLEAR     16  -9  32 W3        30.11R
PLATTSBURGH    CLEAR     17   0  47 E6        30.21R WCI   9
$$

NYZ001>004-010>016-019>021-282300-
WEST


CITY           SKY/WX    TMP DP  RH WIND       PRES   REMARKS
NIAGARA FALLS  PTCLDY    20   9  62 SW9       30.30R WCI   9
BUFFALO        PTCLDY    20  11  68 SW8       30.29R WCI  10
DUNKIRK        CLEAR     21  14  74 SW8       30.32R WCI  11
JAMESTOWN      CLEAR     21   1  42 SW6       30.23R WCI  14
WELLSVILLE     CLEAR     21  -1  38 NW6       30.19R WCI  13
ROCHESTER      CLEAR     25   5  42 W5        30.29R WCI  19
PENN YAN       CLEAR     23   1  38 VRB6      30.26R WCI  16
$$

             KEY
       WCI = WIND CHILL INDEX
       VSB = VISIBILITY
       HX  = HEAT INDEX
$$


USA.gov is the U.S. government's official web portal to all federal, state and local government web resources and services.